Location: Carlingford
(46.7848°N, 67.7474°W)
Time: 06:24:04
(UTC+00:00)

Tiangong - Pass Details

Date: 07 December 2022
Orbit: 382 x 386 km, 41.5° (Epoch: 05 February)

Event Time Altitude Azimuth Distance (km) Brightness Sun altitude
Rises 22:56:49 0° 264° (W) 2,252 3.3 -22.0°
Reaches altitude 10° 22:59:10 10° 248° (WSW) 1,398 1.8 -22.4°
Enters shadow 23:01:33 21° 198° (SSW) 920 0.0 -22.8°
